Temp
-2 -3 -3 -3 -3 -3 -4 -4 -4 -4 -4 -4 -5 -5 -5 -5 -5 -4 -4 -4 -4 -4 -3 -3 -3 -3 -3
-3 -4 -4 -5 -4 -5 -5 -5 -5 -6 -6 -5 -5 -6 -6 -6 -5 -5 -5 -5 -5 -5 -4 -4 -4 -4 -3
-3 -5 -5 -6 -6 -6 -6 -7 -7 -7 -6 -6 -6 -6 -6 -6 -6 -6 -6 -6 -5 -5 -5 -5 -5 -5 -4
-5 -6 -7 -7 -7 -7 -8 -8 -8 -8 -7 -7 -7 -7 -7 -7 -7 -7 -7 -6 -6 -6 -6 -6 -6 -6 -5
-7 -8 -8 -8 -8 -8 -8 -9 -9 -8 -8 -8 -7 -7 -7 -7 -7 -7 -7 -7 -7 -7 -7 -7 -7 -7 -6
-9 -9 -9 -9 -9 -9 -9 -9 -9 -9 -9 -9 -8 -8 -8 -8 -8 -8 -8 -8 -8 -7 -7 -7 -7 -7 -7
-10 -10 -11 -10 -9 -9 -9 -9 -9 -9 -9 -9 -9 -9 -8 -8 -8 -8 -8 -8 -8 -8 -8 -8 -7 -7 -7
-11 -11 -11 -10 -9 -10 -10 -10 -9 -9 -9 -9 -10 -10 -9 -9 -9 -9 -9 -9 -9 -8 -8 -8 -8 -8 -8
-12 -12 -12 -11 -10 -10 -10 -10 -10 -9 -9 -9 -10 -10 -10 -10 -9 -10 -9 -9 -9 -9 -8 -8 -8 -8 -8
-13 -12 -12 -11 -10 -10 -10 -10 -10 -10 -10 -10 -11 -11 -10 -10 -10 -10 -10 -9 -9 -9 -9 -8 -8 -8 -8
-12 -11 -11 -11 -11 -11 -11 -11 -11 -10 -10 -11 -11 -11 -11 -11 -11 -11 -10 -10 -9 -9 -9 -9 -8 -8 -8
-12 -11 -12 -12 -11 -11 -11 -11 -11 -11 -10 -11 -12 -12 -11 -12 -12 -12 -11 -10 -10 -9 -9 -9 -9 -9 -8
-12 -12 -12 -12 -12 -12 -12 -12 -12 -11 -12 -12 -12 -12 -12 -13 -12 -11 -11 -11 -10 -9 -9 -8 -8 -8 -8
-12 -13 -13 -13 -12 -12 -13 -12 -12 -12 -13 -13 -12 -13 -13 -12 -12 -12 -11 -11 -10 -9 -9 -9 -8 -8 -7
-12 -13 -13 -13 -13 -13 -13 -13 -13 -13 -13 -13 -13 -13 -13 -12 -12 -12 -11 -11 -11 -10 -9 -9 -9 -8 -7
-13 -13 -14 -13 -13 -14 -14 -14 -13 -14 -13 -14 -14 -13 -12 -12 -12 -12 -12 -11 -10 -10 -9 -9 -9 -9 -8
-13 -14 -14 -14 -14 -14 -14 -14 -14 -13 -14 -14 -14 -13 -12 -12 -12 -12 -12 -12 -11 -11 -10 -9 -9 -10 -8
Height
2992 2992 2988 2987 2983 2978 2978 2976 2976 2975 2972 2971 2970 2969 2968 2967 2966 2965 2964 2963 2962 2961 2961 2961 2962 2963 2964
2977 2977 2975 2974 2972 2968 2965 2964 2964 2963 2963 2961 2959 2959 2959 2958 2957 2956 2955 2953 2952 2952 2950 2951 2952 2952 2953
2962 2960 2960 2959 2959 2956 2954 2952 2951 2951 2951 2951 2949 2949 2949 2949 2948 2946 2945 2944 2943 2942 2941 2942 2942 2942 2943
2946 2945 2944 2944 2944 2944 2942 2940 2939 2939 2940 2939 2939 2939 2939 2938 2938 2936 2935 2934 2934 2933 2933 2933 2933 2933 2934
2929 2928 2928 2929 2931 2932 2930 2929 2927 2928 2928 2928 2928 2928 2928 2928 2927 2926 2926 2925 2925 2925 2925 2924 2925 2926 2926
2914 2912 2913 2917 2917 2916 2917 2917 2916 2916 2917 2917 2917 2918 2918 2918 2917 2917 2917 2916 2916 2916 2917 2917 2917 2918 2919
2897 2897 2899 2904 2904 2902 2904 2904 2905 2904 2907 2906 2907 2908 2907 2907 2907 2906 2907 2907 2907 2908 2908 2909 2910 2910 2912
2883 2884 2887 2889 2889 2892 2892 2892 2893 2894 2894 2896 2897 2899 2898 2897 2897 2897 2897 2898 2899 2899 2900 2901 2902 2903 2904
2870 2871 2873 2875 2875 2878 2880 2881 2882 2883 2883 2885 2888 2889 2889 2888 2888 2888 2889 2890 2891 2891 2893 2894 2896 2897 2898
2858 2859 2860 2862 2864 2867 2869 2870 2871 2872 2874 2875 2878 2880 2880 2879 2880 2880 2881 2882 2883 2884 2886 2888 2889 2891 2892
2848 2848 2848 2850 2855 2857 2859 2861 2862 2863 2865 2865 2869 2870 2870 2871 2872 2873 2873 2874 2875 2877 2879 2881 2883 2885 2886
2839 2839 2839 2842 2846 2848 2850 2851 2853 2855 2855 2858 2860 2861 2862 2864 2865 2866 2866 2867 2868 2870 2872 2875 2877 2879 2880
2831 2831 2834 2836 2837 2839 2840 2842 2844 2846 2848 2850 2852 2853 2855 2857 2858 2860 2860 2860 2861 2864 2866 2868 2869 2871 2873
2825 2826 2827 2828 2829 2831 2833 2835 2837 2839 2841 2843 2844 2846 2848 2850 2852 2853 2854 2854 2855 2857 2859 2862 2863 2864 2865
2819 2820 2821 2822 2823 2824 2826 2829 2831 2833 2835 2837 2838 2840 2843 2845 2846 2847 2848 2849 2849 2851 2853 2855 2856 2857 2858
2813 2814 2815 2817 2818 2820 2822 2824 2826 2828 2829 2830 2833 2835 2837 2840 2841 2841 2842 2843 2844 2846 2847 2848 2850 2850 2851
2807 2808 2810 2813 2814 2816 2818 2820 2821 2823 2824 2826 2828 2830 2832 2834 2835 2836 2837 2838 2840 2841 2841 2842 2845 2845 2845
Wind_Speed
49 44 45 43 44 46 44 42 40 38 38 38 37 36 35 34 34 34 34 34 36 36 36 36 35 36 37
54 50 48 45 45 45 45 43 41 39 38 37 37 36 34 34 35 35 35 36 36 37 37 36 36 35 37
60 56 52 48 45 45 45 45 43 41 38 36 36 35 34 34 34 35 35 34 35 35 36 35 34 35 35
63 59 56 51 47 45 44 44 43 40 38 37 35 34 34 34 34 35 33 32 32 31 31 31 32 33 33
63 60 57 52 47 43 45 42 44 40 39 36 35 35 35 34 33 32 31 31 30 29 29 28 29 30 30
58 58 55 50 47 45 44 43 39 38 37 34 35 34 35 34 32 31 29 31 31 30 30 29 28 26 28
56 55 51 48 47 46 42 44 39 40 36 34 34 33 34 34 32 30 28 28 30 30 29 29 28 27 27
51 49 43 47 49 44 43 41 41 39 37 34 32 31 33 33 30 28 26 28 29 28 28 26 25 24 24
43 40 38 45 42 41 42 41 40 38 36 35 31 30 32 31 29 27 26 27 26 25 25 23 22 21 21
32 33 36 39 40 39 40 39 37 38 34 34 30 30 31 29 27 25 26 26 25 22 23 23 23 22 21
33 34 37 30 33 37 39 38 36 37 34 32 29 30 30 28 24 23 25 24 24 23 23 23 22 20 20
33 34 27 27 30 34 35 34 35 33 34 28 27 27 26 25 22 23 25 24 24 23 23 22 22 21 21
25 22 26 27 28 31 32 32 34 32 26 24 26 24 22 21 22 23 25 25 24 22 23 22 22 22 22
21 20 20 21 23 25 27 30 27 24 22 24 24 21 19 20 21 21 23 24 25 24 22 21 22 22 22
20 19 20 21 22 24 24 23 22 20 22 22 19 16 18 19 19 20 22 21 25 24 23 22 22 23 23
20 18 20 20 16 18 20 20 19 20 22 17 15 17 18 17 17 19 20 21 23 23 23 23 21 23 22
16 15 18 18 18 19 19 19 19 21 16 14 16 17 16 15 16 16 18 20 20 20 22 22 18 19 21
Wind_Direction
292 290 287 285 283 282 280 278 277 275 276 276 276 276 274 274 276 277 277 276 275 272 270 269 267 263 258
289 285 282 279 279 279 277 274 273 273 275 275 275 273 273 274 276 278 279 279 276 273 270 267 265 261 258
284 281 278 276 275 273 274 272 272 272 274 274 272 272 272 273 276 279 281 280 277 274 270 268 264 260 258
278 276 275 273 270 270 274 271 270 273 271 270 271 270 271 272 277 279 278 278 273 269 267 266 264 260 257
276 273 270 270 271 269 266 273 270 269 268 269 269 269 271 274 278 278 275 272 268 268 269 266 262 260 257
276 272 268 269 269 267 264 266 270 266 267 266 267 267 270 275 278 276 273 267 265 267 267 261 259 256 254
277 272 266 265 265 265 264 264 266 267 265 263 264 267 271 276 279 277 273 266 264 265 260 257 257 254 252
278 276 266 263 262 263 262 264 259 262 264 262 260 264 270 275 276 274 270 263 262 261 256 256 254 249 248
277 266 261 267 260 261 263 262 258 260 260 261 258 263 269 272 272 270 265 261 259 258 252 247 245 243 243
264 259 252 263 254 257 260 262 260 260 258 257 255 263 269 270 267 263 262 260 254 256 247 244 244 245 247
271 258 262 256 261 262 260 261 261 258 260 252 252 262 266 263 259 257 259 257 252 250 247 244 245 246 247
285 258 263 257 261 262 260 261 261 258 255 251 257 263 258 254 251 252 257 256 252 248 246 246 246 246 247
270 266 259 260 258 258 259 261 259 256 250 255 260 255 250 248 242 248 252 257 254 249 249 251 251 254 255
274 263 262 260 256 253 252 253 252 245 251 258 254 248 244 245 245 244 249 250 253 255 254 253 256 260 263
269 267 272 272 265 254 250 246 242 250 256 250 247 245 246 249 245 245 247 248 249 252 254 257 261 264 268
258 253 255 265 263 256 242 240 248 253 246 245 249 250 250 250 246 247 247 246 247 248 251 254 260 266 269
245 243 253 261 261 240 240 245 250 242 242 253 255 256 252 249 248 243 243 244 243 244 249 252 250 259 267